Regional Weather Roundup
Issued by NWS

Home | Current Version | Previous Version | Text Only | Print | Product List | Glossary On
Versions: 1 2 3 4 5 6 7 8 9 10 11 12 13 14 15 16 17 18 19 20 21 22 23 24 25 26 27 28 29 30 31 32 33 34 35 36 37 38 39 40 41 42 43 44 45 46 47 48 49 50
000
ASHW40 PHFO 261743
RWRHI

WEATHER ROUNDUP FOR HAWAII
NATIONAL WEATHER SERVICE HONOLULU HI
700 AM HST SAT MAY 26 2018

THIS IS AN AUTOMATED REPORT THAT HAS NOT BEEN QUALITY CONTROLLED.

NOTE..."FAIR" INDICATES FEW OR NO CLOUDS BELOW 12,000 FEET WITH NO
SIGNIFICANT WEATHER AND/OR OBSTRUCTIONS TO VISIBILITY.

* - THESE SITES REPORT LIMITED FIELDS
# - BUOY DATA PROVIDED BY PACIFIC ISLANDS OCEAN OBSERVING SYSTEM.

HIZ001>004-261800-
KAUAI-NIIHAU-

CITY           SKY/WX    TMP DP  RH WIND       PRES   REMARKS
LIHUE APT      PTSUNNY   75  71  87 NE14      30.09R
PORT ALLEN*      N/A     73 N/A N/A E13G18      N/A
POIPU*           N/A     73 N/A N/A NE7G15      N/A
PRINCEVILLE*     N/A     70 N/A N/A SE5         N/A
KOKOLE POINT*  NOT AVBL
MOLOAA DAIRY*    N/A     73  70  88 E5G13       N/A
WAIMEA HTS*      N/A     73  66  78 E2          N/A
PUU OPAE*        N/A     66  61  82 N3          N/A
PUU LUA*       NOT AVBL
MAKAHA RIDGE*    N/A     68  63  83 MISG        N/A
$$

HIZ005>011-261800-
OAHU-

CITY           SKY/WX    TMP DP  RH WIND       PRES   REMARKS
HONOLULU       CLOUDY    76  66  71 NE7       30.07R
KALAELOA       CLOUDY    74  66  76 NE5       30.09R
KANEOHE MCB    CLOUDY    77  70  79 E10       30.06R
WHEELER FIELD  FAIR      68  65  92 W3        30.08R
BELLOWS*         N/A    N/A N/A N/A NE16        N/A
KAHUKU*          N/A    N/A N/A N/A NE7         N/A
WHEELER*         N/A    N/A N/A N/A W2          N/A
WAIANAE HARBOR   N/A    N/A N/A N/A N3          N/A
DILLINGHAM*    NOT AVBL
KAHUKU TRN*      N/A     77  72  83 W6G16       N/A
KAWAILOA*        N/A     70  63  78 E6          N/A
KII*             N/A     75  68  78 E13         N/A
MAKUA RANGE*     N/A     75  66  73 E3          N/A
OAHU FOREST NW NOT AVBL
SCHOFIELD BRK*   N/A     72  66  83 SW3         N/A
SCHOFIELD S*   NOT AVBL
WAIANAE VLY*   NOT AVBL
KUAOKALA*        N/A     72  63  73 NE13G18     N/A
HONOULIUULI*   NOT AVBL
MOKUOLOE IS*   NOT AVBL
PALEHUA*         N/A     64  63  94 NE10G16     N/A
WAIAWA PHB*    NOT AVBL
$$

HIZ012>013-261800-
MOLOKAI-

CITY           SKY/WX    TMP DP  RH WIND       PRES   REMARKS
MOLOKAI AIRPT  CLOUDY    75  67  76 NE13      30.07S
KALAUPAPA      NOT AVBL
MAKAPULAPAI*     N/A     73  68  83 E17         N/A
MOLOKAI 1*     NOT AVBL
PUU ALII*        N/A     58  58  99 NE2G9       N/A
$$

HIZ016-261800-
KAHOOLAWE-

CITY           SKY/WX    TMP DP  RH WIND       PRES   REMARKS
KAHOOLAWE*     NOT AVBL
HAKIOAWA*        N/A     69  67  93 MISG      30.49R
HONOKANAIA*    NOT AVBL
KANELOA*         N/A     70  68  94 E13G32    30.12R
KEALIALALO*    NOT AVBL
LUA MAKIKA*    NOT AVBL
$$

HIZ014>015-261800-
LANAI-

CITY           SKY/WX    TMP DP  RH WIND       PRES   REMARKS
LANAI CITY     FAIR      68  64  87 E5        30.11R
LANAI 1*       NOT AVBL
$$

HIZ017>028-261800-
MAUI-

CITY           SKY/WX    TMP DP  RH WIND       PRES   REMARKS
KAHULUI        PTSUNNY   73  68  83 NE13      30.06R
KAPALUA-W MAUI PTSUNNY   72  68  88 NE15      30.06R
HANA AIRPORT   NOT AVBL
HANA*            N/A     75 N/A N/A E8G15       N/A
HALEAKALA SUMM   N/A     52   9  17 E18         N/A
MAALAEA BAY*     N/A     73 N/A N/A N12G21      N/A
HALEAKALA*     NOT AVBL
KAUPO GAP*     NOT AVBL
KULA 1*          N/A     46  43  87 E3          N/A
$$

HIZ023>026-261800-
BIG ISLAND OF HAWAII COAST AND LOWER SLOPES-

CITY           SKY/WX    TMP DP  RH WIND       PRES   REMARKS
KAILUA KONA    CLOUDY    78  64  61 CALM      30.03R
HILO           RAIN      72  68  88 SW3       30.11R FOG
HONOKAA*         N/A     66 N/A N/A VRB1        N/A
KAWAIHAE MWT*    N/A     77 N/A N/A SE3         N/A
KAWAIHAE*        N/A     79 N/A N/A W2        30.04R
SOUTH POINT*     N/A     70 N/A N/A N12         N/A
UPOLU AIRPORT* NOT AVBL
KAMUELA*       CLOUDY    64  63  94 NE9       30.17R
HAKALAU*         N/A     54  53  95 S5          N/A
KALOKO-HONOKO*   N/A     79  64  61 NE3       30.03R
PALI 2*          N/A     66  61  82 NE14        N/A
KEALAKOMO*       N/A     73  66  78 N13         N/A
KAUPULEHU*       N/A     75  61  60 NE5         N/A
KAPAPALA*        N/A     63  62  95 NW3         N/A
LOWER KAHUKU*    N/A     61  59  94 NW1G7       N/A
PUHE CS*         N/A     75  61  60 E3          N/A
PUHO CS*         N/A     72  63  73 E2          N/A
PTA KEAMUKU*     N/A     64  57  77 S7          N/A
WAIKOLOA*        N/A     75  59  57 E10         N/A
$$

HIZ027>028-261800-
BIG ISLAND OF HAWAII INTERIOR AND SUMMMITS-

CITY           SKY/WX    TMP DP  RH WIND       PRES   REMARKS
BRADSHAW FIELD NOT AVBL
MK VISITOR CEN   N/A     59   7  12 SE14        N/A
MAUNA KEA*       N/A     46   0  14 NE28        N/A
MAUNA LOA*       N/A     52 -45   1 MISG        N/A
MAUNA LOA 1*   NOT AVBL
PTA KIPUKA*      N/A     54  50  87 NW2         N/A
PTA RANGE 17*    N/A     54  50  87 W3          N/A
PTA WEST*        N/A     61  55  82 SE5         N/A
NENE CABIN*      N/A     48  46  93 E8          N/A
AHUMOA*          N/A     58  53  84 W3          N/A
PTA PORTABLE*  NOT AVBL
PUU MALI*        N/A     55  50  82 W3          N/A
$$

HIC003-261800-
NORTHWEST ISLANDS-

CITY           SKY/WX    TMP DP  RH WIND       PRES   REMARKS
MIDWAY ISLAND  PTCLDY    70  66  88 CALM      30.21S
MIDWAY NOS*      N/A     72 N/A N/A MISG      30.20S
FRENCH FRIGATE NOT AVBL
$$

PHZ110>124-180-261800-
BUOY REPORTS

STATION/POSITION TIME  TEMP    WIND        PRES    WAVE   SWELL
                       AIR SEA DIR/SP/G            HT/PER HT/DIR
                 (UTC) (F)     (DEG/KT/KT) (MB)    (FT/S) (FT/D)
BUOY 51101       1650   70 73   80/ 17/ 21 1022.7R   7/ 8   5
BUOY 51100       NOT AVBL
BUOY 51002       1710   79 80   80/ 17/ 21 1016.2
BUOY 51003       1650   77 79   70/ 14/ 17 1016.2S   7/ 8   5/ 70
BUOY 51004       1710   77 78   70/ 16/ 19   N/A
WAIMEA BAY#      NOT AVBL
MOKAPU POINT#    1704      77                N/A     8/ 8   2/ 60
LANAI#           NOT AVBL
BARBERS PT 2#    NOT AVBL
PAUWELA#         1700      76                N/A     7/ 8   2
HILO#            1657      77                N/A     8/ 8   2/ 50
KANEOHE BAY#     1654      76                N/A     7/ 8   2/ 50
KANEOHE BAY 2#   NOT AVBL
HANALEI#         NOT AVBL
KAHULUI HARBOR   1712   75 78   40/ 11/ 14 1018.2
HONOLULU HARBOR  1718   76 77   60/  3/  5 1018.0
PEARL HARBOR#    1700      78                N/A     3/15   2/170
KILO NALU        NOT AVBL
HILO HARBOR      1718   71 79  110/  5/  5 1019.0
MOKUOLOE         1636   76 78  100/  6/  9 1018.3R
NAWILIWILI       1718   76      60/  8/ 13 1018.8
WHOTS BUOY       NOT AVBL
BUOY 51028       NOT AVBL
$$

......................KEY........................................
  SKY/WX - SKY CONDITIONS/PRESENT WEATHER
  TMP    - TEMPERATURE IN FAHRENHEIT
  DWPT   - DEWPOINT IN FAHRENHEIT
  RH     - RELATIVE HUMIDITY IN PERCENT
  WIND   - DIRECTION AND SPEED /MPH FOR ISLANDS...KTS FOR BUOYS/
  PRES   - MEAN SEA LEVEL PRESSURE IN INCHES OF HG
  VSB    - VISIBILITY IN MILES
  HX     - HEAT INDEX
  WCI    - WIND CHILL INDEX
  VRB    - VARIABLE WIND DIRECTION
  N/A    - NOT AVAILABLE




USA.gov is the U.S. government's official web portal to all federal, state and local government web resources and services.